Tracking 18793 objects as of 24-September-2017
HD Live streaming from Space Station
objects crossing your sky now

COSMOS 2497

Track COSMOS 2497 now!
10-day predictions
COSMOS 2497 is classified as:


NORAD ID: 39762
Int'l Code: 2014-028B
Perigee: 1,485.4 km
Apogee: 1,517.9 km
Inclination: 82.5 °
Period: 115.9 minutes
Semi major axis: 7872 km
RCS: Unknown
Launch date: May 23, 2014
Source: Commonwealth of Independent States (former USSR) (CIS)
Launch site: PLESETSK MISSILE AND SPACE COMPLEX (PKMTR)

COSMOS 2497 is part of the Russian military's Rodnik, or Strela 3M, system designed to relay messages between users posted in remote locations.
aabbcc
Your satellite tracking list
Your tracking list is empty





NASA's NSSDC Master Catalog

Two Line Element Set (TLE):
1 39762U 14028B   17267.06149863  .00000010  00000-0  00000+0 0  9992
2 39762  82.4508 306.1740 0020642 172.4785 187.6619 12.42868908151536
Source of the keplerian elements: AFSPC